When you browse on this site, cookies collect data to enhance your experience and personalize the content and advertising you see.
Visit our Privacy Policy to learn more. By continuing to use the site, you agree to this use of cookies and data.
  • en France
  • Liste des pays
  • À 7 jours
  • Température de l'eau
  • Carte satellitaire
  • Carte météo
  • Widgets météo
  • user-avatar
    Se connecter

    Météo par heure à Innsbruck

    Ce jour, 17 Décembre, Lundi

    Heure Température Précipitation Vent Pression Humidité
    00:00 -9°C° 0 mm 1 m/s 589 mmHg 89%
    01:00 -9°C° 0 mm 1 m/s 589 mmHg 89%
    02:00 -9°C° 0 mm 1 m/s 589 mmHg 89%
    03:00 -9°C° 0 mm 1 m/s 589 mmHg 88%
    04:00 -10°C° 0 mm 1 m/s 589 mmHg 88%
    05:00 -10°C° 0 mm 1 m/s 590 mmHg 88%
    06:00 -10°C° 0 mm 1 m/s 590 mmHg 89%
    07:00 -10°C° 0 mm 1 m/s 590 mmHg 89%
    08:00 -9°C° 0 mm 1 m/s 591 mmHg 88%
    09:00 -9°C° 0 mm 2 m/s 592 mmHg 87%
    10:00 -8°C° 0 mm 2 m/s 593 mmHg 86%
    11:00 -7°C° 0 mm 2 m/s 593 mmHg 85%
    12:00 -6°C° 0 mm 2 m/s 594 mmHg 83%
    13:00 -5°C° 0 mm 2 m/s 595 mmHg 82%
    14:00 -6°C° 0 mm 2 m/s 595 mmHg 85%
    15:00 -7°C° 0 mm 2 m/s 595 mmHg 87%
    16:00 -7°C° 0 mm 2 m/s 595 mmHg 89%
    17:00 -8°C° 0.1 mm 2 m/s 595 mmHg 90%
    18:00 -9°C° 0.1 mm 2 m/s 595 mmHg 90%
    19:00 -9°C° 0.1 mm 2 m/s 596 mmHg 90%
    20:00 -9°C° 0.1 mm 2 m/s 596 mmHg 91%
    21:00 -10°C° 0.1 mm 2 m/s 596 mmHg 91%
    22:00 -9°C° 0.1 mm 1 m/s 597 mmHg 91%
    23:00 -9°C° 0 mm 1 m/s 597 mmHg 91%

    Demain, 18 Décembre, Mardi

    Heure Température Précipitation Vent Pression Humidité
    00:00 -9°C° 0 mm 1 m/s 597 mmHg 91%
    01:00 -10°C° 0 mm 1 m/s 597 mmHg 91%
    02:00 -10°C° 0 mm 1 m/s 596 mmHg 90%
    03:00 -11°C° 0 mm 1 m/s 596 mmHg 88%
    04:00 -11°C° 0 mm 1 m/s 596 mmHg 87%
    05:00 -11°C° 0 mm 1 m/s 596 mmHg 83%
    06:00 -12°C° 0 mm 1 m/s 595 mmHg 79%
    07:00 -12°C° 0 mm 1 m/s 595 mmHg 74%
    08:00 -10°C° 0 mm 1 m/s 596 mmHg 71%
    09:00 -9°C° 0 mm 1 m/s 596 mmHg 68%
    10:00 -7°C° 0 mm 1 m/s 597 mmHg 65%
    11:00 -7°C° 0 mm 2 m/s 597 mmHg 66%
    12:00 -5°C° 0 mm 2 m/s 597 mmHg 67%
    13:00 -4°C° 0 mm 2 m/s 597 mmHg 68%
    14:00 -5°C° 0 mm 2 m/s 597 mmHg 69%
    15:00 -6°C° 0 mm 2 m/s 596 mmHg 71%
    16:00 -8°C° 0 mm 2 m/s 595 mmHg 72%
    17:00 -8°C° 0 mm 2 m/s 595 mmHg 70%
    18:00 -9°C° 0 mm 2 m/s 594 mmHg 67%
    19:00 -10°C° 0 mm 2 m/s 594 mmHg 65%
    20:00 -12°C° 0 mm 3 m/s 594 mmHg 63%
    21:00 -12°C° 0 mm 3 m/s 594 mmHg 61%
    22:00 -12°C° 0 mm 3 m/s 593 mmHg 59%
    23:00 -10°C° 0 mm 3 m/s 593 mmHg 58%

    Après-demain, 19 Décembre, Mercredi

    Heure Température Précipitation Vent Pression Humidité
    00:00 -10°C° 0 mm 3 m/s 593 mmHg 57%
    01:00 -9°C° 0 mm 2 m/s 593 mmHg 56%
    02:00 -9°C° 0 mm 2 m/s 593 mmHg 55%
    03:00 -9°C° 0 mm 2 m/s 593 mmHg 55%
    04:00 -8°C° 0 mm 2 m/s 592 mmHg 55%
    05:00 -8°C° 0 mm 2 m/s 592 mmHg 55%
    06:00 -8°C° 0 mm 2 m/s 593 mmHg 55%
    07:00 -8°C° 0 mm 2 m/s 593 mmHg 56%
    08:00 -7°C° 0 mm 2 m/s 593 mmHg 58%
    09:00 -6°C° 0 mm 2 m/s 594 mmHg 60%
    10:00 -3°C° 0 mm 1 m/s 594 mmHg 63%
    11:00 -2°C° 0 mm 1 m/s 594 mmHg 65%
    12:00 -1°C° 0 mm 1 m/s 594 mmHg 67%
    13:00 -1°C° 0 mm 1 m/s 594 mmHg 69%
    14:00 -2°C° 0 mm 1 m/s 593 mmHg 71%
    15:00 -5°C° 0 mm 2 m/s 592 mmHg 73%
    16:00 -6°C° 0 mm 2 m/s 591 mmHg 76%
    17:00 -7°C° 0 mm 2 m/s 591 mmHg 77%
    18:00 -7°C° 0 mm 2 m/s 591 mmHg 79%
    19:00 -8°C° 0 mm 2 m/s 591 mmHg 80%
    20:00 -8°C° 0.1 mm 2 m/s 591 mmHg 82%
    21:00 -8°C° 0.1 mm 2 m/s 591 mmHg 85%
    22:00 -8°C° 0.1 mm 2 m/s 591 mmHg 87%
    23:00 -8°C° 0.5 mm 2 m/s 591 mmHg 89%

    20 Décembre, Jeudi

    Heure Température Précipitation Vent Pression Humidité
    00:00 -7°C° 0.5 mm 1 m/s 591 mmHg 91%
    01:00 -6°C° 0.5 mm 1 m/s 591 mmHg 94%
    02:00 -6°C° 0.8 mm 1 m/s 591 mmHg 94%
    03:00 -6°C° 0.8 mm 1 m/s 591 mmHg 94%
    04:00 -6°C° 0.8 mm 1 m/s 591 mmHg 95%
    05:00 -6°C° 0.9 mm 1 m/s 591 mmHg 95%
    06:00 -6°C° 0.9 mm 1 m/s 591 mmHg 95%
    07:00 -6°C° 0.9 mm 1 m/s 591 mmHg 95%
    08:00 -7°C° 0.5 mm 2 m/s 592 mmHg 95%
    09:00 -6°C° 0.5 mm 2 m/s 592 mmHg 94%
    10:00 -6°C° 0.5 mm 2 m/s 592 mmHg 94%
    11:00 -6°C° 0.4 mm 2 m/s 592 mmHg 93%
    12:00 -6°C° 0.4 mm 2 m/s 592 mmHg 92%
    13:00 -6°C° 0.4 mm 2 m/s 592 mmHg 92%
    14:00 -6°C° 0.2 mm 2 m/s 592 mmHg 92%
    15:00 -7°C° 0.2 mm 2 m/s 592 mmHg 93%
    16:00 -7°C° 0.2 mm 2 m/s 592 mmHg 93%
    17:00 -8°C° 0.1 mm 2 m/s 592 mmHg 92%
    18:00 -9°C° 0.1 mm 2 m/s 592 mmHg 92%
    19:00 -10°C° 0.1 mm 2 m/s 592 mmHg 91%
    20:00 -10°C° 0.1 mm 2 m/s 592 mmHg 88%
    21:00 -10°C° 0.1 mm 2 m/s 592 mmHg 86%
    22:00 -10°C° 0.1 mm 1 m/s 592 mmHg 84%
    23:00 -12°C° 0 mm 2 m/s 592 mmHg 82%

    21 Décembre, Vendredi

    Heure Température Précipitation Vent Pression Humidité
    00:00 -13°C° 0 mm 2 m/s 592 mmHg 81%
    01:00 -13°C° 0 mm 2 m/s 592 mmHg 80%
    02:00 -11°C° 0 mm 1 m/s 592 mmHg 80%
    03:00 -11°C° 0 mm 1 m/s 592 mmHg 80%
    04:00 -11°C° 0 mm 1 m/s 592 mmHg 80%
    05:00 -11°C° 0 mm 1 m/s 593 mmHg 80%
    06:00 -10°C° 0 mm 1 m/s 593 mmHg 80%
    07:00 -10°C° 0 mm 1 m/s 593 mmHg 80%
    08:00 -9°C° 0.1 mm 1 m/s 594 mmHg 79%
    09:00 -8°C° 0.1 mm 1 m/s 594 mmHg 79%
    10:00 -7°C° 0.1 mm 1 m/s 595 mmHg 78%
    11:00 -4°C° 0 mm 1 m/s 595 mmHg 76%
    12:00 -3°C° 0 mm 1 m/s 595 mmHg 74%
    13:00 -2°C° 0 mm 1 m/s 595 mmHg 72%
    14:00 -5°C° 0.1 mm 2 m/s 595 mmHg 74%
    15:00 -5°C° 0.1 mm 2 m/s 594 mmHg 76%
    16:00 -6°C° 0.1 mm 2 m/s 594 mmHg 78%
    17:00 -6°C° 0.2 mm 2 m/s 594 mmHg 78%
    18:00 -6°C° 0.2 mm 2 m/s 594 mmHg 78%
    19:00 -6°C° 0.2 mm 2 m/s 594 mmHg 78%
    20:00 -6°C° 0.5 mm 2 m/s 594 mmHg 80%
    21:00 -6°C° 0.5 mm 2 m/s 594 mmHg 81%
    22:00 -6°C° 0.5 mm 2 m/s 594 mmHg 83%
    23:00 -5°C° 0.8 mm 2 m/s 594 mmHg 85%

    22 Décembre, Samedi

    Heure Température Précipitation Vent Pression Humidité
    00:00 -5°C° 0.8 mm 2 m/s 594 mmHg 86%
    01:00 -5°C° 0.8 mm 2 m/s 594 mmHg 88%
    02:00 -5°C° 0.3 mm 2 m/s 594 mmHg 88%
    03:00 -4°C° 0.3 mm 2 m/s 594 mmHg 88%
    04:00 -4°C° 0.3 mm 2 m/s 595 mmHg 89%
    05:00 -4°C° 0.1 mm 2 m/s 595 mmHg 90%
    06:00 -4°C° 0.1 mm 2 m/s 595 mmHg 91%
    07:00 -4°C° 0.1 mm 2 m/s 596 mmHg 92%
    08:00 -3°C° 0 mm 2 m/s 596 mmHg 93%
    09:00 -3°C° 0 mm 2 m/s 597 mmHg 93%
    10:00 -2°C° 0 mm 2 m/s 597 mmHg 94%
    11:00 -2°C° 0 mm 2 m/s 597 mmHg 94%
    12:00 -2°C° 0 mm 2 m/s 597 mmHg 95%
    13:00 -1°C° 0 mm 2 m/s 598 mmHg 95%
    14:00 -2°C° 0 mm 2 m/s 597 mmHg 94%
    15:00 -3°C° 0 mm 2 m/s 597 mmHg 93%
    16:00 -2°C° 0 mm 1 m/s 597 mmHg 92%
    17:00 -2°C° 0.2 mm 1 m/s 597 mmHg 89%
    18:00 -2°C° 0.2 mm 1 m/s 597 mmHg 86%
    19:00 -2°C° 0.2 mm 1 m/s 598 mmHg 83%
    20:00 -2°C° 0.7 mm 1 m/s 598 mmHg 85%
    21:00 -2°C° 0.7 mm 1 m/s 598 mmHg 87%
    22:00 -2°C° 0.7 mm 1 m/s 598 mmHg 89%
    23:00 -1°C° 0.8 mm 1 m/s 598 mmHg 91%
    Voir plus